EUTELSAT 10B

Last updated on Thu Jul 10 2025 00:02:47 GMT+0000 (Coordinated Universal Time)

1 54259U 22157A 25190.24141977 .00000083 00000+0 00000+0 0 9993 2 54259 0.0514 91.2811 0002361 35.4698 257.5991 1.00272752 9571
UTC large
Height (km)
Speed (km/s)
/
Latitude / Longitude
Inclination (degrees)
Orbital Period (minutes)
Azimuth
Elevation
Range (km)
Doppler Factor

Next 0 passes for location: London (51.5072 / 0.1276)

Sorry there are no passes over London.